Wind_Gust
17 18 19 18 18 17 17 18 18 18 17 17 16 17 17 16 17 17 17 17 16 16 15 14 14 14 15 15 16 17 18 20 22 20 21 23 23 22 25 25 25 25
16 17 18 18 18 18 17 16 17 17 17 16 15 16 16 16 15 15 16 17 16 16 16 15 15 15 15 14 14 15 18 19 20 21 23 23 23 23 24 24 25 24
15 17 18 17 19 17 18 18 17 17 17 16 15 15 16 15 15 15 15 16 16 15 15 15 15 15 16 15 14 14 14 16 18 17 20 22 22 23 22 24 25 26
15 17 19 18 19 18 19 20 19 17 16 15 14 14 14 15 15 15 14 15 15 15 15 14 13 14 16 16 15 15 14 15 15 17 18 19 20 21 23 21 22 24
14 17 18 18 18 18 19 19 19 18 16 15 15 15 14 15 15 17 16 16 16 16 15 16 14 13 15 16 16 15 14 13 14 16 16 15 16 18 19 22 25 26
14 17 19 19 17 19 21 20 18 17 14 13 12 14 15 15 15 16 17 17 17 17 16 17 16 13 14 16 16 14 14 14 13 14 16 17 15 16 17 18 21 23
14 15 17 18 17 18 18 17 15 14 11 11 11 12 14 15 16 17 17 17 18 18 17 16 15 14 14 15 15 14 14 14 13 15 14 13 16 16 16 16 18 19
13 14 17 17 16 16 15 14 14 14 13 13 12 13 14 16 18 18 17 18 17 17 16 15 14 15 14 13 14 14 13 14 14 13 13 13 14 16 15 15 16 20
12 14 15 16 16 15 12 12 12 12 13 13 14 15 15 16 17 17 18 18 17 16 15 14 14 14 14 14 14 14 14 15 16 13 13 15 15 15 15 15 15 17
13 14 15 16 16 15 13 12 12 12 13 14 15 16 18 17 16 17 17 17 16 16 16 15 15 15 14 14 14 14 14 14 15 15 13 12 11 15 15 12 15 16
12 14 15 16 16 15 13 12 10 12 12 14 15 16 17 16 15 16 16 17 16 16 16 16 16 16 15 15 13 13 13 13 14 15 13 12 11 11 10 13 14 13
12 13 15 16 16 14 12 12 12 12 12 12 15 17 16 15 15 16 16 16 16 16 15 14 15 15 16 16 15 14 13 12 12 13 13 13 11 9 13 11 12 12
12 13 14 16 14 13 13 13 11 11 12 13 15 17 16 15 14 13 13 13 14 15 15 15 14 14 15 16 16 15 15 14 13 12 13 12 12 12 9 9 11 12
11 13 13 15 14 13 12 11 10 10 11 12 13 14 14 15 14 13 13 14 14 14 15 14 13 13 15 17 16 15 15 14 13 13 13 12 11 11 10 11 10 13
12 13 13 14 15 14 13 12 10 10 12 12 11 12 13 13 13 16 15 15 14 13 14 13 13 14 17 18 17 16 16 15 14 14 13 12 11 11 11 11 12 9
14 12 14 14 14 12 11 12 11 11 11 11 12 12 12 13 13 13 15 14 14 14 13 12 13 11 17 15 11 16 16 15 14 13 13 12 12 12 12 11 10 10
14 13 14 14 12 13 11 12 12 11 12 12 11 13 11 13 12 13 12 14 14 14 14 12 12 13 16 12 12 11 15 16 14 13 12 12 11 12 13 11 10 8
14 14 14 14 13 13 12 12 12 13 13 12 13 13 12 10 11 12 13 12 13 14 14 15 12 14 19 19 16 13 10 16 15 13 11 11 11 11 12 11 9 9
14 14 15 14 14 13 11 12 13 13 13 14 14 13 13 12 10 12 12 12 14 15 15 15 13 11 14 14 14 14 11 13 17 13 12 10 10 10 11 11 9 8
14 15 16 14 13 13 11 11 11 11 11 12 14 13 12 13 11 13 13 13 14 15 16 16 12 12 16 15 14 13 11 10 16 13 13 11 10 10 10 10 10 11
14 15 16 14 13 13 11 12 11 12 14 14 15 14 12 13 13 12 12 12 13 14 16 17 13 13 15 15 14 13 13 11 12 11 12 10 11 10 10 10 10 11
13 13 12 12 12 11 11 11 11 12 14 15 15 13 11 12 12 13 12 12 12 14 16 18 15 13 15 15 15 14 14 14 10 11 12 13 13 13 12 12 11 11
12 12 11 11 10 11 12 12 12 12 12 12 13 12 11 10 10 10 10 11 12 13 15 16 13 14 16 16 15 14 13 11 11 13 13 13 13 12 14 14 15 14
11 11 10 10 10 10 10 10 10 11 12 10 11 12 11 10 11 12 10 10 9 12 13 14 14 14 16 16 15 15 14 13 9 10 12 12 13 13 13 14 16 21
11 11 11 11 12 12 12 13 13 13 11 10 10 12 13 12 12 12 9 10 8 10 11 13 15 13 14 16 14 13 15 12 10 11 11 10 11 13 12 12 12 16
11 11 11 12 14 13 13 13 13 13 12 11 10 12 12 12 13 10 10 10 8 10 9 12 14 13 16 15 13 12 13 15 10 9 10 10 11 12 12 12 14 14
Wind_Speed
8 8 9 8 7 7 7 7 7 8 8 8 6 6 6 5 6 7 8 8 8 8 8 7 7 7 7 6 7 8 7 9 9 8 8 8 9 9 9 11 13 11
7 9 8 8 8 7 7 7 8 8 8 7 6 6 6 7 7 7 7 8 8 7 8 7 7 7 7 6 7 7 8 9 10 7 8 11 10 10 11 12 12 8
7 9 8 9 8 8 7 7 8 8 8 8 7 4 4 5 7 7 7 7 8 7 7 7 7 8 8 8 7 6 6 7 8 8 9 10 8 10 10 11 12 13
6 8 8 9 8 7 7 8 8 8 7 6 6 5 4 4 5 6 6 7 7 7 7 7 6 7 8 9 8 6 6 6 6 8 8 7 9 9 9 7 9 11
5 7 8 9 8 7 8 9 9 9 8 6 6 6 6 6 6 6 7 7 7 7 7 8 6 6 7 8 8 7 6 6 6 6 7 8 6 7 7 7 11 12
5 7 8 9 7 7 8 10 8 7 5 4 4 4 5 6 7 7 8 8 8 8 8 8 7 6 7 8 8 5 5 6 6 6 7 9 6 6 6 6 8 9
4 6 8 8 8 7 7 6 6 6 5 4 4 5 6 7 7 8 8 8 9 8 8 7 7 6 6 7 7 7 6 7 6 8 7 6 7 7 7 7 7 10
4 6 7 8 8 8 6 5 5 5 5 5 5 6 6 8 9 8 8 9 8 8 7 7 6 7 6 6 6 7 6 5 7 7 6 6 6 8 6 5 6 11
4 7 7 8 8 7 6 5 5 5 5 6 6 7 7 7 8 8 9 9 8 7 7 6 6 5 5 6 6 7 7 7 8 7 6 7 8 6 7 4 6 7
4 6 7 8 8 7 6 5 4 4 5 6 6 7 8 8 8 8 8 7 7 7 6 6 6 6 5 5 6 6 6 7 7 7 6 5 2 5 8 4 6 7
4 6 8 8 8 7 6 5 4 3 4 6 6 7 8 8 7 6 6 6 6 7 6 5 6 5 6 6 5 5 6 6 7 7 6 5 4 5 4 5 5 6
5 6 8 9 8 6 6 5 5 4 5 4 6 7 8 7 6 6 6 6 6 7 6 5 6 6 6 6 6 6 5 5 5 6 6 6 5 3 7 2 4 4
4 6 7 8 7 5 5 5 4 3 4 5 6 6 7 7 6 6 5 6 6 7 7 6 5 5 6 7 7 7 7 6 6 6 6 5 5 5 3 4 3 4
4 6 6 7 6 5 5 5 3 3 4 5 6 6 6 6 6 6 6 6 5 6 6 6 5 5 7 7 7 7 6 7 6 6 6 5 5 5 3 5 3 5
5 5 6 6 5 5 6 5 4 3 4 5 4 5 5 6 5 7 7 5 4 5 5 4 4 4 6 7 7 8 7 7 6 6 6 6 5 5 5 4 5 4
6 5 6 6 5 4 5 5 4 4 4 5 5 5 5 6 6 6 6 6 6 5 4 3 2 3 7 9 7 6 7 6 6 6 5 5 5 5 5 4 4 4
6 5 6 6 5 4 2 4 5 4 5 5 5 6 5 5 6 6 5 5 6 6 6 4 3 4 7 8 8 8 7 7 6 5 5 5 5 5 5 4 4 2
5 6 6 6 5 5 5 5 4 5 6 6 6 6 6 4 5 6 6 5 5 6 6 6 4 7 8 8 9 9 7 7 6 5 4 4 4 4 5 4 3 2
6 6 6 6 6 5 4 5 6 6 6 6 7 6 6 6 4 6 5 5 6 7 7 6 5 9 9 8 8 10 9 8 7 6 5 4 4 3 4 4 3 2
6 6 6 6 6 5 4 4 5 5 5 5 6 6 5 6 5 6 6 6 6 6 7 7 5 8 8 9 9 9 9 7 7 6 5 4 3 3 3 3 4 4
6 6 6 6 5 5 5 5 5 5 6 6 6 7 6 6 6 5 5 5 6 6 6 8 4 7 8 9 9 10 11 9 4 4 4 4 3 2 2 2 2 4
5 5 5 4 4 4 5 5 5 6 7 7 7 6 5 5 5 6 5 5 6 6 6 9 5 9 9 10 10 10 12 6 1 1 1 2 2 2 2 4 4 3
4 4 4 4 3 4 4 5 5 6 5 4 5 5 5 5 4 4 4 4 5 6 7 7 4 8 9 9 10 11 10 3 2 1 2 1 1 0 2 4 5 6
3 4 3 3 3 3 4 4 5 5 5 4 4 5 5 4 5 5 4 3 3 5 5 6 5 8 9 8 10 10 9 5 2 2 2 2 2 2 3 3 7 12
3 4 4 4 4 4 4 6 6 5 5 4 4 5 5 5 5 4 3 3 2 3 2 5 6 6 9 10 10 10 8 3 3 2 2 3 2 3 2 2 4 8
3 4 4 5 6 5 5 5 6 5 5 4 4 5 5 4 5 4 3 3 2 4 2 5 6 4 8 9 9 10 11 6 4 3 3 2 4 3 2 3 3 4
Wind_Direction
345 346 339 338 329 329 324 315 317 316 317 322 314 316 314 314 299 301 302 306 315 317 322 319 316 313 311 305 300 289 275 266 264 253 242 250 260 247 233 230 233 229
340 347 340 336 330 329 318 312 313 312 313 312 312 313 319 317 312 298 298 299 302 316 321 322 318 314 311 310 302 295 281 271 267 264 249 239 239 239 242 239 234 230
338 344 340 336 332 326 322 318 311 310 309 311 305 314 323 327 330 323 313 313 310 316 322 328 325 316 311 303 295 283 275 277 274 265 266 269 262 249 247 245 240 227
337 343 334 334 332 327 322 317 314 311 307 305 317 324 328 337 349 343 353 345 329 319 317 324 321 314 310 310 303 294 283 272 265 268 263 252 249 254 250 258 254 235
328 337 335 336 332 326 322 323 323 316 314 333 322 331 337 346 340 347 345 345 345 341 333 320 322 319 314 315 314 314 311 275 261 259 264 260 264 262 256 247 251 240
324 335 335 334 332 323 330 335 329 336 334 360 330 328 343 342 340 337 334 334 334 333 334 330 325 331 322 318 321 324 328 315 288 249 251 265 259 246 244 240 245 235
327 333 329 332 329 316 329 327 333 322 330 344 339 348 345 339 336 340 335 334 328 325 326 328 335 333 332 324 323 332 342 326 295 271 255 255 260 255 245 234 235 242
323 328 326 329 325 313 330 321 328 320 336 339 334 346 336 333 325 326 324 324 326 313 311 323 334 338 337 325 324 331 339 324 317 316 297 269 267 274 262 244 238 244
317 326 325 322 321 312 315 313 310 327 326 330 342 336 335 331 325 322 323 325 322 318 316 326 332 337 339 329 333 338 341 333 327 329 313 301 285 292 273 237 239 246
315 328 319 318 317 310 309 312 323 320 329 335 335 332 329 327 328 331 334 334 327 317 319 329 334 334 334 337 342 344 338 332 326 319 324 307 256 248 260 231 240 255
322 324 319 319 314 306 307 302 295 306 326 328 335 325 331 329 329 338 342 335 332 324 326 326 323 325 335 339 336 338 330 331 321 319 321 310 328 307 292 274 245 236
323 320 320 319 314 301 298 288 274 292 315 316 327 337 346 338 333 340 351 337 338 340 324 321 330 337 344 345 337 327 323 323 326 320 319 320 331 328 285 290 263 245
322 321 321 321 314 299 292 282 276 307 322 332 335 342 352 345 345 333 339 330 347 345 335 330 332 351 358 347 339 334 325 321 319 318 313 317 313 304 307 294 262 272
319 322 321 323 319 296 290 284 291 310 335 336 340 348 343 340 354 342 331 332 350 349 346 348 340 6 3 348 335 330 326 320 311 307 312 315 312 296 294 259 246 210
311 323 320 323 316 317 313 309 295 314 335 328 323 354 329 330 340 348 333 322 330 355 347 358 358 16 3 346 333 328 329 321 312 300 300 303 303 302 290 277 257 240
310 310 317 323 305 312 327 304 296 320 319 313 331 341 349 324 325 345 349 336 333 344 349 351 15 34 5 338 322 316 317 309 305 294 292 294 300 292 292 291 284 289
296 310 315 311 322 302 293 293 297 295 290 309 328 323 328 323 310 321 346 340 333 333 346 350 350 39 360 333 319 309 301 299 302 299 292 283 281 283 291 293 292 273
297 302 306 313 305 301 306 305 294 294 304 314 316 315 311 321 312 315 326 336 330 329 339 351 27 57 2 343 324 317 304 300 294 288 290 287 287 289 286 294 318 288
290 296 305 305 302 298 301 293 303 307 299 304 312 317 311 309 333 305 312 330 325 329 332 347 4 44 357 342 327 313 306 296 279 268 275 280 309 305 307 315 314 304
290 298 302 302 300 291 286 290 288 282 287 292 297 298 301 309 314 303 300 317 322 324 330 338 358 36 350 343 327 317 303 298 270 253 257 277 295 318 317 326 329 333
288 302 307 309 303 294 289 282 288 294 289 290 290 295 294 301 302 295 303 314 318 328 331 332 67 34 8 343 333 319 314 296 272 261 252 243 271 292 312 0 356 338
287 304 307 302 297 296 287 282 282 287 291 291 288 280 279 282 290 293 304 316 321 325 330 335 75 43 14 347 335 324 312 291 351 251 255 274 297 313 340 27 9 349
293 303 310 309 304 298 294 297 295 289 293 299 289 280 285 289 277 293 307 306 318 326 337 332 358 57 19 348 336 334 317 331 26 355 100 159 98 234 96 54 26 2
275 292 293 297 295 284 290 290 288 285 290 295 290 297 289 279 290 296 289 296 316 330 351 327 334 73 21 358 336 333 312 318 27 17 24 105 136 118 109 83 58 42
267 281 284 280 278 290 285 287 287 286 293 287 273 276 279 270 269 279 288 293 345 336 19 309 336 74 40 3 340 336 322 325 70 54 21 42 61 97 82 85 94 69
249 254 270 278 286 294 296 301 300 288 285 285 276 279 280 285 277 282 300 315 348 306 344 332 341 5 58 2 351 337 335 330 82 87 78 52 2 19 89 77 64 75